Regional Weather Roundup
Issued by NWS Memphis, TN

Home | Current Version | Previous Version | Text Only | Print | Product List | Glossary On
Versions: 1 2 3 4 5 6 7 8 9 10 11 12 13 14 15 16 17 18 19 20 21 22 23 24 25 26 27 28 29 30 31 32 33 34 35 36 37 38 39 40 41 42 43 44 45 46 47 48 49 50
000
ASUS44 KMEG 240210
RWRMEG
MEMPHIS CWA HOURLY WEATHER ROUNDUP
NATIONAL WEATHER SERVICE MEMPHIS TN
900 PM CDT WED MAY 23 2018

...WEST TENNESSEE...

CITY           SKY/WX    TMP DP  RH WIND       PRES   REMARKS
MEMPHIS INTL   CLOUDY    77  72  84 W6        30.08S
NWS MEMPHIS      N/A     77 N/A N/A MISG        N/A
JACKSON        FAIR      75  70  84 CALM      30.08R
COVINGTON      MOCLDY    79  70  73 CALM      30.07
BOLIVAR        MOCLDY    75  72  88 CALM      30.08R
LEXINGTON      CLEAR     75  70  83 N5        30.08S
SELMER         CLEAR     73  72  94 CALM      30.08R
DYERSBURG      FAIR      79  69  71 NE5       30.08S
PARIS          CLEAR     72  68  88 N3        30.10S
HUNTINGDON     CLEAR     73  72  94 CALM      30.08S


...EASTERN ARKANSAS...

CITY           SKY/WX    TMP DP  RH WIND       PRES   REMARKS
JONESBORO      FAIR      73  71  93 NW3       30.07F
WEST MEMPHIS   FAIR      76  69  79 CALM      30.06F
BATESVILLE     CLOUDY    69  69 100 CALM      30.09F FOG
NEWPORT        FAIR      70  69  97 NW5       30.08F
WALNUT RIDGE     N/A     72  70  93 NW7       30.08F
BLYTHEVILLE    FAIR      79  71  76 NE5       30.06F
SEARCY         FAIR      70  70 100 N3        30.07F
STUTTGART      FAIR      74  71  91 NE8       30.07F
PINE BLUFF     FAIR      74  70  87 NE7       30.06F
MONTICELLO     FAIR      76  73  91 VRB3      30.06S


...NORTH MISSISSIPPI...

CITY           SKY/WX    TMP DP  RH WIND       PRES   REMARKS
TUPELO         FAIR      77  67  71 CALM      30.07S
BATESVILLE       N/A    N/A N/A N/A MISG        N/A
TUNICA           N/A     72  70  94 E5        30.09R
CLARKSDALE       N/A     73  73 100 CALM      30.09R
CORINTH        MOCLDY    81  70  69 CALM      30.07R
GREENWOOD      FAIR      71  68  90 CALM      30.08S
COLUMBUS       CLOUDY    76  75  96 CALM      30.06S
STARKVILLE     FAIR      73  68  83 CALM      30.08F
GOLDEN TRIANGL FAIR      77  71  82 W3        30.07F


...SOUTHEAST MISSOURI...

CITY           SKY/WX    TMP DP  RH WIND       PRES   REMARKS
KENNETT        FAIR      81  70  69 N6        30.06S
MALDEN         FAIR      81  68  65 NE3       30.09S
WEST PLAINS    CLOUDY    68  65  90 CALM      30.12F
POPLAR BLUFF   FAIR      76  74  93 N3        30.08S
CAPE GIRARDEAU FAIR      75  68  78 CALM      30.09R


...NORTHWEST ALABAMA...

CITY           SKY/WX    TMP DP  RH WIND       PRES   REMARKS
MUSCLE SHOALS  FAIR      78  69  73 NW3       30.08R


...MIDDLE TENNESSEE...

CITY           SKY/WX    TMP DP  RH WIND       PRES   REMARKS
NASHVILLE      MOCLDY    79  62  56 N5        30.09R
CLARKSVILLE    FAIR      74  64  71 N5        30.09R
DICKSON        PTCLDY    73  68  83 CALM      30.10S
COLUMBIA       CLOUDY    75  70  83 CALM      30.08R
LEWISBURG      PTCLDY    72  66  83 CALM      30.08R


...WESTERN KENTUCKY...

CITY           SKY/WX    TMP DP  RH WIND       PRES   REMARKS
PADUCAH        FAIR      74  67  78 CALM      30.09R
FORT CAMPBELL  FAIR      76  66  71 N3        30.09R


...CENTRAL ARKANSAS...

CITY           SKY/WX    TMP DP  RH WIND       PRES   REMARKS
LITTLE ROCK    MOCLDY    70  69  97 N5        30.07F


SKY/WX REPORTED AS FAIR MEANS FEW OR NO CLOUDS BELOW
12 THOUSAND FEET.




USA.gov is the U.S. government's official web portal to all federal, state and local government web resources and services.